Location: Carbonear
(47.7333°N, 53.2500°W)
Time: 10:04:47
(UTC+00:00)

STRAND 1 - Visible Passes

Search period start: 30 November 2022 00:00
Search period end: 10 December 2022 00:00
Orbit: 767 x 781 km, 98.4° (Epoch: 29 November)

Date Brightness Start Highest point End Pass type
(mag) Time Alt. Az. Time Alt. Az. Time Alt. Az.
30 Nov ? 08:33:45 10° SE 08:38:18 33° ENE 08:42:52 10° N visible
30 Nov ? 10:12:41 10° SSW 10:17:25 37° W 10:22:10 10° NNW visible
30 Nov ? 22:26:52 24° S 22:26:52 24° S 22:28:56 10° S visible
01 Dec ? 08:00:53 10° ESE 08:04:23 19° ENE 08:07:53 10° NNE visible
01 Dec ? 09:37:54 10° S 09:43:01 73° WSW 09:48:09 10° NNW visible
01 Dec ? 21:52:11 19° SE 21:52:11 19° SE 21:53:56 10° SSE visible
01 Dec ? 23:32:33 15° SW 23:32:33 15° SW 23:33:27 10° SW visible
02 Dec ? 07:29:49 10° ENE 07:30:38 10° NE 07:31:28 10° NE visible
02 Dec ? 09:03:45 10° SSE 09:08:46 59° ENE 09:13:49 10° N visible
02 Dec ? 21:17:29 11° ESE 21:17:29 11° ESE 21:17:50 10° SE visible
02 Dec ? 22:57:52 23° SSW 22:57:52 23° SSW 22:59:40 10° SSW visible
03 Dec ? 08:30:14 10° SE 08:34:43 31° ENE 08:39:11 10° N visible
03 Dec ? 10:08:59 10° SSW 10:13:47 39° W 10:18:35 10° NNW visible
03 Dec ? 22:23:10 25° S 22:23:10 25° S 22:25:17 10° S visible
04 Dec ? 07:57:28 10° E 08:00:48 18° ENE 08:04:08 10° NNE visible
04 Dec ? 09:34:16 10° S 09:39:23 78° WSW 09:44:32 10° NNW visible
04 Dec ? 21:48:29 18° SE 21:48:29 18° SE 21:50:10 10° SSE visible
04 Dec ? 23:28:51 16° SW 23:28:51 16° SW 23:29:54 10° SW visible
05 Dec ? 09:00:11 10° SSE 09:05:10 55° ENE 09:10:10 10° N visible
05 Dec ? 21:13:46 10° ESE 21:13:46 10° ESE 21:13:55 10° ESE visible
05 Dec ? 22:54:09 24° SSW 22:54:09 24° SSW 22:56:03 10° SSW visible
06 Dec ? 08:26:44 10° ESE 08:31:07 30° ENE 08:35:31 10° N visible
06 Dec ? 10:05:18 10° S 10:10:08 42° W 10:15:00 10° NNW visible
06 Dec ? 22:19:26 25° SSE 22:19:26 25° SSE 22:21:36 10° S visible
07 Dec ? 07:54:04 10° E 07:57:14 17° ENE 08:00:23 10° NNE visible
07 Dec ? 09:30:38 10° SSE 09:35:45 83° WSW 09:40:55 10° NNW visible
07 Dec ? 21:44:43 18° SE 21:44:43 18° SE 21:46:25 10° SSE visible
07 Dec ? 23:25:05 17° SW 23:25:05 17° SW 23:26:21 10° SW visible
08 Dec ? 08:56:37 10° SE 09:01:33 52° ENE 09:06:30 10° N visible
08 Dec ? 22:50:22 25° SSW 22:50:22 25° SSW 22:52:27 10° SSW visible
09 Dec ? 08:23:14 10° ESE 08:27:31 28° ENE 08:31:48 10° N visible
09 Dec ? 10:01:36 10° S 10:06:29 45° W 10:11:23 10° NNW visible
09 Dec ? 22:15:39 25° SSE 22:15:39 25° SSE 22:17:55 10° S visible
09 Dec ? 23:56:01 10° WSW 23:56:01 10° WSW 23:56:07 10° WSW visible
